[[{"header":{"parameterUnit":"m.s-1","parameterCategory":1,"la1":30.2992,"la2":30.254,"lo1":-89.0895,"lo2":-89.0443,"dy":0.0025,"dx":0.0025,"nx":19,"ny":19,"refTime":"2026-04-09T21:00:00:Z","depth":0,"parameterNumber":2,"parameterNumberName":"U-component_of_WINDS"},"data":[0,0,0,-1.5316,-1.5317,-1.5362,-1.5362,-1.5433,-1.5434,0,0,0,0,0,0,0,0,0,0,0,-1.5311,-1.5312,-1.5316,-1.5317,-1.5362,-1.5362,-1.5433,-1.5434,0,0,0,0,0,0,0,0,0,0,0,-1.5311,-1.5312,-1.5313,-1.5317,-1.5362,-1.5362,-1.5433,-1.5394,0,0,0,0,0,0,0,0,0,0,-1.5348,-1.5353,-1.5312,-1.5313,-1.5318,-1.5362,-1.5362,-1.5392,-1.5397,-1.5419,0,-1.5442,0,-1.5439,-1.544,-1.544,0,0,0,-1.5311,-1.5349,-1.5353,-1.5313,-1.5318,-1.5361,-1.534,-1.5394,-1.54,-1.5425,-1.5443,-1.5445,-1.544,-1.544,-1.5441,-1.5593,-1.5594,0,0,-1.5308,-1.5324,-1.535,-1.5357,-1.5351,-1.5338,-1.5341,-1.5397,-1.5417,-1.5443,-1.5446,-1.5441,-1.5441,-1.5441,-1.5592,-1.5593,0,0,0,-1.5305,-1.5323,-1.5325,-1.5355,-1.5361,-1.534,-1.5343,-1.5415,-1.5414,-1.5447,-1.5442,-1.5441,-1.5442,-1.5591,-1.5593,-1.5658,0,0,0,-1.5304,-1.5321,-1.5324,-1.5335,-1.5361,-1.5389,-1.536,-1.541,-1.5416,-1.5442,-1.5441,-1.5443,-1.559,-1.5592,-1.5654,-1.5687,0,0,0,-1.5306,-1.5321,-1.5331,-1.5336,-1.5355,-1.5387,-1.539,-1.5411,-1.5414,-1.544,-1.5443,-1.5589,-1.5591,-1.565,-1.5681,-1.5731,0,0,0,-1.5312,-1.5389,-1.5332,-1.5416,-1.5355,-1.5428,-1.5389,-1.5443,-1.5473,-1.5442,-1.559,-1.5592,-1.5649,-1.5677,-1.5728,-1.5777,-1.5799,0,0,-1.5418,-1.5403,-1.5451,-1.5401,-1.5488,-1.542,-1.5516,-1.5529,-1.5517,-1.5568,-1.5572,-1.5655,-1.568,-1.5731,-1.5919,-1.5936,0,0,0,-1.549,-1.5524,-1.5544,-1.5574,-1.5585,-1.5597,-1.5594,-1.5598,-1.5641,-1.5547,-1.5687,-1.5701,-1.573,-1.5753,-1.5768,-1.5792,-1.5604,-1.5603,-1.5603,-1.5663,-1.5643,-1.5721,-1.5706,-1.5736,-1.5731,-1.5752,-1.5758,-1.5729,-1.5763,-1.5778,-1.5894,-1.5922,-1.5933,-1.5958,-1.5803,-1.5803,-1.5803,-1.5803,-1.5816,-1.5862,-1.5822,-1.5883,-1.5861,-1.5913,-1.5911,-1.5889,-1.5933,-1.5881,-1.5906,-1.5851,-1.5953,-1.5974,-1.5808,-1.5807,-1.5807,-1.5806,-1.5806,-1.5928,-1.5946,-1.595,-1.599,-1.6024,-1.6006,-1.6051,-1.6029,-1.601,-1.6034,-1.6047,-1.6046,-1.6042,-1.6042,-1.6042,-1.6043,-1.6043,-1.6043,-1.6044,-1.6042,-1.6044,-1.6084,-1.6102,-1.6118,-1.6136,-1.6132,-1.6147,-1.6158,-1.6139,-1.6139,-1.6107,-1.5967,-1.5932,-1.605,-1.6049,-1.6048,-1.6047,-1.6047,-1.6205,-1.6164,-1.6226,-1.6242,-1.6261,-1.6296,-1.6267,-1.63,-1.6309,-1.6332,-1.6295,-1.6195,-1.6177,-1.6165,-1.6136,-1.6299,-1.6299,-1.6299,-1.6299,-1.6299,-1.6287,-1.6345,-1.6372,-1.6396,-1.6377,-1.6447,-1.6444,-1.6435,-1.6439,-1.6413,-1.6372,-1.6361,-1.635,-1.6334,-1.6306,-1.6509,-1.651,-1.651,-1.6398,-1.6388,-1.6452,-1.6441,-1.6455,-1.6467,-1.6532,-1.6565,-1.6546,-1.6518,-1.6443,-1.6434,-1.6368,-1.6348,-1.6319,-1.6295,-1.6244,0,0]},{"header":{"parameterUnit":"m.s-1","parameterCategory":1,"la1":30.2992,"la2":30.254,"lo1":-89.0895,"lo2":-89.0443,"dy":0.0025,"dx":0.0025,"nx":19,"ny":19,"refTime":"2026-04-09T21:00:00:Z","depth":0,"parameterNumber":3,"parameterNumberName":"V-component_of_WINDS"},"data":[0,0,0,1.2521,1.2522,1.256,1.2561,1.2608,1.2609,0,0,0,0,0,0,0,0,0,0,0,1.2509,1.2509,1.2521,1.2522,1.256,1.2561,1.2608,1.2609,0,0,0,0,0,0,0,0,0,0,0,1.2509,1.2509,1.251,1.2522,1.256,1.2561,1.2608,1.2579,0,0,0,0,0,0,0,0,0,0,1.2542,1.2531,1.2509,1.251,1.2522,1.256,1.2561,1.2578,1.2581,1.259,0,1.2599,0,1.2605,1.2612,1.2612,0,0,0,1.2521,1.2528,1.2539,1.251,1.2522,1.256,1.2543,1.258,1.2583,1.2594,1.26,1.2602,1.2605,1.2612,1.2612,1.2668,1.2668,0,0,1.2519,1.2516,1.2537,1.2541,1.2537,1.2542,1.2544,1.2582,1.2587,1.26,1.2603,1.2606,1.2612,1.2613,1.2668,1.2668,0,0,0,1.2513,1.2514,1.2524,1.2539,1.2547,1.2543,1.2546,1.2585,1.2589,1.2603,1.2607,1.2613,1.2613,1.2668,1.2668,1.2678,0,0,0,1.2512,1.2511,1.2523,1.2521,1.2546,1.2567,1.2548,1.2586,1.2591,1.2607,1.2613,1.2614,1.2667,1.2668,1.2677,1.2684,0,0,0,1.2506,1.251,1.2516,1.2521,1.2538,1.2566,1.2572,1.2587,1.2593,1.2612,1.2614,1.2667,1.2668,1.2677,1.2682,1.2697,0,0,0,1.2499,1.2524,1.2516,1.2544,1.2537,1.2573,1.2572,1.2598,1.2616,1.2613,1.2667,1.2668,1.2676,1.2682,1.2697,1.271,1.2715,0,0,1.2528,1.2527,1.2544,1.2538,1.2574,1.2567,1.2604,1.2623,1.2628,1.2654,1.2655,1.2678,1.2682,1.2697,1.2745,1.2749,0,0,0,1.2552,1.2564,1.2575,1.2592,1.2607,1.2621,1.2635,1.2642,1.2665,1.2641,1.2687,1.269,1.2699,1.2705,1.2709,1.2717,1.2671,1.2671,1.2671,1.2587,1.2592,1.2621,1.2631,1.2648,1.2662,1.2676,1.2687,1.2687,1.2698,1.2706,1.2734,1.2742,1.2744,1.2752,1.2713,1.2713,1.2713,1.2713,1.2629,1.2647,1.2648,1.2676,1.2681,1.2704,1.2718,1.2717,1.2739,1.2729,1.2737,1.2725,1.2749,1.2756,1.2714,1.2714,1.2714,1.2714,1.2714,1.2653,1.2663,1.2671,1.2697,1.2716,1.2725,1.2746,1.275,1.2753,1.2761,1.277,1.277,1.277,1.2765,1.2765,1.2765,1.2765,1.2765,1.2766,1.2674,1.2683,1.2701,1.2721,1.2732,1.2748,1.2762,1.2774,1.2787,1.2788,1.2788,1.2786,1.275,1.2741,1.2767,1.2767,1.2767,1.2766,1.2766,1.2715,1.2706,1.2734,1.2746,1.2768,1.2787,1.2791,1.2814,1.2823,1.2834,1.2831,1.2803,1.2802,1.28,1.2792,1.283,1.283,1.283,1.283,1.2734,1.2735,1.2764,1.2782,1.2801,1.2808,1.2838,1.285,1.286,1.2866,1.2861,1.2851,1.2849,1.2849,1.2845,1.2838,1.2887,1.2887,1.2887,1.276,1.2762,1.2788,1.2799,1.2817,1.2832,1.286,1.2881,1.289,1.2889,1.2871,1.2869,1.2853,1.2848,1.2846,1.284,1.2827,0,0]}]]